Timeline UpdatesTrip UpdatesNews PostsPvt Posts♥♥Travel TipsAdmin PostsConv PostsFollowed PostsChat RequestsBlog PostsPNR Posts

Disclaimer
Search
 
 
Tue Oct 21, 2014 09:17:06 ISTHomeTrainsΣChainsAtlasPNRForumGalleryNewsFAQTripsMembersLoginFeedback
No Recent News for this Train
Other Trains in the News **new
Latest...
.
Mon Oct 06, 2014 (04:03PM)
⇐ Return Journey: Train# 11057

11058/Amritsar - Mumbai LTT (Pathankot) Express

Time-Table HAS CHANGED.
Oct 06 (4:03PM)
Change Departure Station:
Change Arrival Station:
Post a Train Travel TipPost a Train Travel Tip **new
Post a Comment/Question/Picture/VideoPost a Comment/Question/Picture/Video
Pantry/Catering
✕ NO Pantry Car
✓ Catering Avbl
RSA - Rake Sharing
No RSA.
Rake/Coach Composition
LOCO-SLR-RMS-S1-S2-S3-S4-S5-S6-S7-S8-B1-B2-B3-A1-MILITARY-GEN-GEN-LDS-[SLR-S10-S9-B4]. ; [SLR-S10-S9-B4] -> Is the Slip portion OF Dhule and attached to the main train at Chalisgaon.
Loco
ASR-UMB --> TKD WDM3A/WDP3A UMB-LTT --> GZB WAP-1/4/5/7
News    PNR    Forum    Time-Table    Availability    Fare Chart    Map    Arr/Dep History    Trips    Gallery    ΣChains    X/O    Timeline    
Travel Time: 1h 5m    1 halts    Distance: 84 km    Avg Speed: 77 km/hr
Type: Mail/Express
Zone: CR/Central
Departs @ 22:30 (Avg 2m late)
Platform# ???
SMTWTFS
Palwal/PWL 
Arrives @ 23:35 (Avg 21m late)
Platform# 1
SMTWTFS
Mathura Junction/MTJ 

1 halts. 9 intermediate Stations between Palwal and Mathura Junction

Show ALL intermediate Stations  Show Old Time-Table

#TrkCodeStation NameX/OArrivesAvgDepartsAvgHaltPFDay#KmSpeedElevZoneAddress
1/==/ASRAmritsar Junction (5)  -08:30+441-560.377233mNRAmritsar 143002, Punjab
2/==/JNLJandiala (2)X  08:45+1508:47+152m21-541.168238mNRJandiala, Punjab
3/==/BEASBeas Junction (2)X  09:08+1409:10+142m21-517.361238mNRBeas, Punjab
4/==/KREKartarpur (2)X  09:31+1209:33+122m11-495.873236mNRKartarpur, Punjab
5/==/JUCJalandhar City Junction (5)X  09:45+1409:55+1310m21-481.218239mNRJalandhar 144001, Punjab
6/==/JRCJalandhar Cantt. Junction (3)X  10:11+610:13+62m21-476.470239mNRNear Rama Mandi, Punjab
7/==/PGWPhagwara Junction (3)X  10:27+910:29+92m11-460.154245mNRPhagwara, Punjab
8/==/GRYGoraya (2)  10:40+910:42+92m11-450.264240mNRGoraya, Punjab
9/==/PHRPhillaur Junction (3)  10:54+910:56+92m11-437.533246mNRPhillaur, Punjab
10/==/LDHLudhiana Junction (7)X  11:20+411:30+1810m41-424.429246mNRLudhiana 141001, Punjab
11|--|AHHAhmadgarh (1)  12:23+1112:25+162m11-399.079256mNRAhmedgarh, Punjab
12|--|METMalerkotla (2)X  12:40+1612:42+162m21-379.153248mNRMalerkotla., Punjab
13|--|DUIDhuri Junction (4)  13:01+1813:05 13:04+204 3m--1-362.373248mNRDhuri, Punjab
14|--|NBANabha (1)  13:26+2813:28+282m11-335.470250mNRNabha, Punjab
15|--|PTAPatiala (4)X  13:50+3313:53+353m11-309.537256mNRPatiala, Punjab
16|--|RPJRajpura Junction (3)OO  14:35 14:33+2514:37 14:35+262m21-284.759272mNRNH-1, Punjab
17/==/UBCAmbala City (3)XO  14:56+1914:58+192m11-264.221273mNRNH-1, Haryana
18/==/UMBAmbala Cantt. Junction (7)XO15:20+1015:50 15:55+230 35m11-256.685278mNRAmbala 133001, Haryana
19/==/SHDMShahbad Markanda (2)  16:09+2316:11+232m11-236.778267mNRShahabad Markanda, Haryana
20/==/KKDEKurukshetra Junction (3)X  16:32 16:28+2416:34 16:30+252m21-214.560260mNRKurukshetra, Haryana
21/==/NLKRNilokheri (2)X  16:51 16:47+2516:53 16:49+252m--1-197.534254mNRNilokheri, Haryana
22/==/TRRTaraori (2)X  17:00 16:56+2517:02 16:58+252m21-193.640255mNRTaraori, Haryana
23/==/KUNKarnal (3)X  17:16+2017:18+202m11-181.566253mNRKarnal, Haryana
24/==/GRAGharaunda (2)  17:34+1917:36+192m11-164.056244mNRGharaunda, Haryana
25/==/PNPPanipat Junction (5)X  17:54+2017:56+202m21-147.060235mNRPanipat, Haryana
26/==/SMKSamalkha (3)  18:13+1418:15+142m11-130.157229mNRSamalkha, Haryana
27/==/GNUGanaur  18:28+1318:30+132m--1-117.860222mNRGanaur, Haryana
28/==/SNPSonipat (3)  18:46+1918:48+192m11-101.948225mNRSonipat, Haryana
29/==/RDDERathdhana (2)  19:01+1319:03+132m--1-91.550223mNRSonipat, Haryana
30/==/NURNarela (2)  19:11+1319:13+132m--1-84.859222mNRNarela, Delhi NCT
31/==/ANDIAdarsh Nagar (2)  19:30+1519:32+152m11-68.121214mNRShalimar Bagh, Delhi NCT
32/==/SZMDelhi Sabzi Mandi (2)  19:51+1119:53+132m31-61.59220mNRGulabi Bagh, Delhi NCT
33/==/NDLSNew Delhi (16)X  20:20+1220:50+1130m41-57.434215mNRNew Delhi, Delhi NCT
34/==/NZMDelhi Hazrat Nizamuddin (7)X  21:03+1221:05+132m41-50.057209mNRNew Delhi 110013, Delhi NCT
35/==/FDBFaridabad (4)X  21:27+1221:29+162m31-29.237206mNRold Faridabad, Haryana
36/==/BVHBallabgarh (5)O  21:42+1621:44+172m--1-21.229203mNRFaridabad, Haryana
37/==/PWLPalwal (8)»  22:28+022:30+22m--10.085200mNRPalwal, Haryana
38/==/KSVKosi Kalan (3)  23:00+1723:02+182m2142.575189mNCRKosi Kalan, Uttar Pradesh
39/==/MTJMathura Junction (10)•  23:35+2123:40+225m1183.956179mNCRMathura, Uttar Pradesh
40/==/RKMRaja Ki Mandi (4)X  00:33+2200:35+232m22133.612170mNCRAgra, Uttar Pradesh
41/==/AGCAgra Cantt. (6)X  00:55+2001:05 01:03+2710 8m12137.679174mNCRAgra, Uttar Pradesh
42/==/DHODholpur Junction (3)X  01:41 01:43+4001:43 01:45+412m22190.273177mNCRDholpur, Rajasthan
43/==/MRAMorena (3)X  02:05 02:07+4502:07 02:09+462m12217.156176mNCRMorena, Madhya Pradesh
44/==/GWLGwalior Junction (4)X  02:50+4002:58+408m12255.673214mNCRGwalior, Madhya Pradesh
45/==/DBADabra (3)XO  03:31 03:33+4803:33 03:35+492m22297.949 NCRDabra(District-Gwalior), Madhya Pradesh
46/==/SORSonagir (2)X  03:56 03:58+4703:58 04:00+502m--2316.846211mNCRDatia, Madhya Pradesh
47/==/DAADatia (2)X  04:13 04:15+5104:15 04:17+532m22328.346264mNCRDatia, Madhya Pradesh
48/==/JHSJhansi Junction (7)X  04:50+5105:00+5510m52353.361259mNCRJhansi, Uttar Pradesh
49/==/BABBabina (3)X  05:23 05:25+1:0205:25 05:27+1:032m12378.852285mNCRBabina, Uttar Pradesh
50/==/BZYBasai (3)  05:39 05:41+1:0305:41 05:43+1:042m12390.951287mNCR07522289600(Gate ManMob. - 9452701575), Madhya Pradesh
51/==/TBTTalbahat (4)X  05:56 05:58+1:0205:58 06:00+1:052m12403.852314mNCRKhaniyadhana Station Rd, Madhya Pradesh
52/==/LARLalitpur (3)X  06:39 06:46+5306:41 06:48+542m22443.677373mNCRLalitpur, Uttar Pradesh
53/==/JLNJakhalaun (3)O  07:01+5607:03+572m22460.499394mNCRLalitpur(05176-272220), Uttar Pradesh
54/==/DUADhaura (3)XO  07:10+1:0107:12+1:062m--2472.020407mNCRDhaura Tanda, Madhya Pradesh
55/==/BINABina Junction (5)XO  08:55+1409:00+155m32506.669414mWCRJn Pt - KATNI/GUNA/ BPL/JHS, Madhya Pradesh
56/==/MABAMandi Bamora (3)X  09:15+2109:17+212m22523.878413mWCRState Highway 14, Madhya Pradesh
57/==/BAQGanj Basoda (4)X  09:39+2309:41+232m22552.369 WCRVidisha, Madhya Pradesh
58/==/GLGGulabhGanj (3) new halt!!X  09:57+2809:59+302m--2570.674 WCRVidisha, Madhya Pradesh
59/==/BHSVidisha (3)X  10:16+3010:18+302m22591.656 WCRVidisha, Madhya Pradesh
60/==/SCISanchi (2) new halt!!X  10:28+3310:30+372m--2601.066428mWCRRaisen, Madhya Pradesh
61/==/BPLBhopal Junction (6)X  11:10+4111:15+455m12645.138497mWCRBhopal, Madhya Pradesh
62/==/HBJBhopal HabibGanj (5)  11:25+5111:27+522m42651.464496mWCRHabibGanj, Madhya Pradesh
63/==/MDDPMandi Dip (1)  11:42+5511:44+552m12667.562 WCRMandideep, Madhya Pradesh
64/==/ODGObaidulla Ganj  11:57+5611:59+572m12681.054 WCRObaidullaganj Raisen Dist., Madhya Pradesh
65/==/BNIBudni (2)X  12:33+1:0612:35+1:062m12711.846311mWCRSehore 466445 Madhya pradesh, Madhya Pradesh
66/==/HBDHoshangabad (2)X  12:44+1:0712:46+1:072m22718.832308mWCRHoshangabad, Madhya Pradesh
67/==/ETItarsi Junction (7)  13:15 13:20+5413:20 13:25+585m22736.984329mWCRItarsi 461111, Madhya Pradesh
68/==/BPFBanapura (2)  13:44 13:49+1:0513:46 13:51+1:052m22770.377314mWCRBanapura, Madhya Pradesh
69/==/TBNTimarni (2)  14:08 14:13+1:0314:10 14:15+1:042m12798.561308mWCRTimarni, Madhya Pradesh
70/==/HDHarda (3)  14:24 14:29+1:0014:26 14:31+1:002m12812.776289mWCRHarda, Madhya Pradesh
71/==/KKNKhirkiya (2)X  14:51 14:56+5914:53 14:58+592m12844.280281mWCRSH 15, Madhya Pradesh
72/==/CAERChhanera (2)  15:16 15:21+5815:18 15:23+592m22874.977283mWCRChhanera, Madhya Pradesh
73/==/TLVTalvadiya (2)X  15:53 15:46+1:0015:55 15:48+1:002m22904.618308mWCRKhandwa, Madhya Pradesh
74/==/KNWKhandwa Junction (5)X  16:40+3416:45+355m32920.378310mCRKhandwa, Madhya Pradesh
75/==/NPNRNepanagar (2)  17:18+3817:20+382m--2962.968289mCRState Highway 27, Madhya Pradesh
76/==/BAUBurhanpur (2)  17:43+3817:45+382m12989.293269mCRBurhanpur, Madhya Pradesh
77/==/RVRaver (2)X  17:58+4318:00+432m--21009.476242mCRJalgaon, Maharashtra
78/==/NBNimbhora (2)X  18:08+4518:10+442m121019.565229mCRJalgaon, Maharashtra
79/==/SAVSavda (2)X  18:18+4618:20+462m221028.237220mCRSavda, Maharashtra
80/==/BSLBhusaval Junction (8)X  18:45+4118:55+4510m421043.663208mCRBhusaval 425201, Maharashtra
81/==/JLJalgaon Junction (4)X  19:18+5019:20+522m221067.887213mCRJalgaon 425001, Maharashtra
82/==/PCPachora Junction (4)XO  19:53+5619:55+562m--21115.541264mCRPachora 424201, Maharashtra
83/==/CSNChalisgaon Junction (3)X  21:00+2721:05+455m--21160.3101352mCRChalisgaon 424101, Maharashtra
84/==/MMRManmad Junction (6)XO  21:45+5921:50+1:015m321227.967580mCRManmad 423104, Maharashtra
85/==/NKNasik Road (3)X  22:55+4023:00+405m321300.643563mCRNashik 422101, Maharashtra
86/==/DVLDevlali (3)XO  23:08+4123:10+412m221306.430561mCRDist. Nashik 422401, Maharashtra
87/==/IGPIgatpuri (4)X  00:40+1400:45+205m331351.343589mCRIgatpuri 422403, Maharashtra
88/==/KYNKalyan Junction (8)  02:40+1802:45+185m631433.16710mCRKalyan 421301, Maharashtra
89/==/TNAThane (10)  03:03+3003:05+292m831453.32210mCRThane (West) 400602, Maharashtra
90/==/LTTMumbai Lokmanya Tilak Terminus (5)  03:50+10---31469.8-7mCRMumbai - 400089, Maharashtra
Scroll to Top
Scroll to Bottom